Flag for Uruguay Weather past 2 weeks in Minas, Uruguay

Now
52 °F

Sunny.


Feels Like: 50 °F
Forecast: 47 / 67 °F
Wind: 6 mph from Northeast

Location: Capitan Corbeta

Current Time: Sep 22, 2014 at 7:40:33 AM

Latest Report: Sep 22, 2014 at 7:00 AM


Visibility: 10 mi

Pressure: 30.15 "Hg

Humidity: 77%

Dew point: 45 °F

Location of MinasLocation

Historic Weather in Minas — Graph

°F

Minas temperature yesterday

Maximum temperature yesterday: 63 °F (at 1:00 PM)
Minimum temperature yesterday: 52 °F (at 11:00 PM)
Average temperature yesterday: 57 °F

Past Weeks' High & Low Weather Summary

 TemperatureHumidityPressure
High75 °F (Sep 9, 9:00 AM)100% (Sep 9, 3:00 PM)30.18 "Hg (Sep 9, 3:00 PM)
Low41 °F (Sep 12, 7:00 AM)34% (Sep 11, 4:00 PM)29.50 "Hg (Sep 9, 9:00 AM)
Average57 °F80%30.00 "Hg
* Reported Sep 7 7:00 AM — Sep 22 6:00 AM, Minas, Weather by CustomWeather, © 2014

Note: Actual official high and low records may vary slightly from our data, if they occured in-between our weather recording intervals... More about our weather records

Advertising

Minas weather history for previous 24 hours

 ConditionsComfort  
Time TempWeatherWind HumidityBarometerVisibility
6:00 AM
Sep 22
52 °FThunderstorms. Passing clouds.8 mph82%30.12 "HgN/A
5:00 AM52 °FClear.14 mph82%30.12 "Hg10 mi
4:00 AM52 °FClear.14 mph82%30.12 "Hg10 mi
2:00 AM52 °FClear.13 mph88%30.15 "Hg10 mi
1:00 AM52 °FClear.13 mph88%30.15 "Hg10 mi
12:00 AM52 °FClear.13 mph88%30.18 "Hg10 mi
11:00 PM
Sep 21
52 °FClear.7 mph88%30.18 "Hg10 mi
10:00 PM54 °FClear.12 mph82%30.18 "Hg10 mi
9:00 PM54 °FClear.12 mph82%30.18 "Hg10 mi
8:00 PM54 °FClear.13 mph77%30.18 "Hg10 mi
7:00 PM54 °FClear.13 mph77%30.18 "Hg10 mi
6:00 PM57 °FClear.12 mph67%30.15 "Hg10 mi
5:00 PM59 °FPassing clouds.12 mph63%30.15 "HgN/A
4:00 PM63 °FPassing clouds.13 mph52%30.15 "HgN/A
2:00 PM63 °FPassing clouds.14 mph49%30.15 "HgN/A
1:00 PM63 °FScattered clouds.15 mph52%30.18 "HgN/A
12:00 PM61 °FPassing clouds.12 mph55%30.18 "HgN/A
11:00 AM61 °FPassing clouds.14 mph59%30.18 "HgN/A
10:00 AM61 °FPassing clouds.14 mph59%30.18 "HgN/A
9:00 AM59 °FPassing clouds.12 mph68%30.15 "HgN/A
8:00 AM57 °FSunny.8 mph77%30.12 "Hg10 mi
7:00 AM54 °FPassing clouds.8 mph100%30.12 "HgN/A
Weather by CustomWeather, © 2014

See weather overviewHow to use our weather pages